Weather Roundup
Issued by NWS Corpus Christi, TX

Home | Current Version | Previous Version | Text Only | Print | Product List | Glossary On
Versions: 1 2 3 4 5 6 7 8 9 10 11 12 13 14 15 16 17 18 19 20 21 22 23 24 25 26 27 28 29 30 31 32 33 34 35 36 37 38 39 40 41 42 43 44 45 46 47 48 49 50
000
ASUS44 KCRP 180410
HRRCRP

SOUTH TEXAS REGIONAL WEATHER ROUNDUP
NATIONAL WEATHER SERVICE CORPUS CHRISTI TX
1100 PM CDT THU APR 17 2014


TXZ229>244-180500-
...CORPUS CHRISTI AREA OBSERVATIONS...

CITY           SKY/WX    TMP DP  RH WIND       PRES   REMARKS
CORPUS CHRISTI DRIZZLE   66  62  87 E14       30.10R
NAS CORPUS CHR CLOUDY    67  64  90 E15       30.09R
ROCKPORT       CLOUDY    66  63  90 E15       30.11R
KINGSVILLE NAS LGT RAIN  66  65  96 NE9       30.10R
ALICE          LGT RAIN  65  63  93 E9        30.11R FOG
FALFURRIAS     CLOUDY    68  65  91 E9        30.09R
$$

...VICTORIA AREA OBSERVATIONS...

CITY           SKY/WX    TMP DP  RH WIND       PRES   REMARKS
VICTORIA       CLOUDY    63  58  83 NE6       30.14R
BEEVILLE       CLOUDY    64  63  99 E6        30.13R
PLEASANTON     HVY RAIN  65  59  82 E8        30.15R
SAN ANTONIO    LGT RAIN  63  62  97 E5        30.16R FOG
$$

...LAREDO AREA OBSERVATIONS...

CITY           SKY/WX    TMP DP  RH WIND       PRES   REMARKS
LAREDO         CLOUDY    72  63  73 E15       30.11R
COTULLA        CLOUDY    67  61  81 E16       30.12R
DEL RIO        MOCLDY    69  58  67 E15       30.09R
MCALLEN        CLOUDY    69  67  93 E10       30.07R
HEBBRONVILLE   CLOUDY    66  63  88 E10       30.11R FOG
$$

...OTHER TEXAS OBSERVATIONS...

CITY           SKY/WX    TMP DP  RH WIND       PRES   REMARKS
BROWNSVILLE    CLOUDY    70  67  90 NE6       30.05R
HOUSTON        MOCLDY    63  55  75 E9        30.15S
COL. STATION   CLOUDY    62  60  93 S5        30.17R
AUSTIN         CLOUDY    61  60  97 CALM      30.16R
WACO           CLOUDY    60  58  92 N6        30.17S
FORT WORTH     CLOUDY    60  52  74 N7        30.20R
WICHITA FALLS  CLOUDY    55  53  93 NE5       30.22R
LUBBOCK        CLEAR     44  37  76 NE8       30.23R
EL PASO        CLEAR     68  28  22 E16G25    30.09R
$$

...MARINE OBSERVATIONS...

STATION/POSITION TIME  SKY/WX   TEMP    WIND        PRES    VSBY  WAVE   SWELL
                                AIR SEA DIR/SP/G                  HT/PER HT/PER
                 (UTC)          (F)     (DEG/KT/KT) (MB)    (MI)  (FT/S) (FT/S)
PORT ARANSAS     0400            66 67   60/ 15/ 17 1019.3R
BUOY 90 E PORT A NOT AVBL
BUOY 45 SE BAFFI 0400            69 68   80/ 16/ 19 1017.8R         6/ 7
BUOY 200 E PT IS NOT AVBL
BUOY 15 E GALVES 0400            64 66   60/ 12/ 14 1019.8F         3/ 6   2/ 6
$$



USA.gov is the U.S. government's official web portal to all federal, state and local government web resources and services.